sat.trackr.live / text

‹ back to catalog

HULIANWANG DIGUI-147

NORAD 67523 · 2026-013B

PAYLOAD ACTIVE UNKNOWN

§ Identity

Operator
Country
PRC
Launch date
2026-01-19
Launch site
WSC
Launch vehicle
Mass (kg)
RCS (m²)

External: N2YO · Heavens-Above · Gunter

§ Orbital elements

Epoch: 2026-05-25T01:41:34.876320Z

Period
108.33 min
Inclination
50.0052°
Eccentricity
0.0000871
Mean motion
13.29328882 rev/d
Perigee alt
1,148.6 km
Apogee alt
1,150.0 km
Semi-major
7,527.4 km
B*
8.3896e-5
RAAN
78.6878°
Arg perigee
24.7542°
Mean anomaly
335.3372°
Rev number
1,697

§ Raw data

HULIANWANG DIGUI-1471 67523U 26013B   26145.07054255 -.00000085  00000+0  83896-4 0  99922 67523  50.0052  78.6878 0000871  24.7542 335.3372 13.29328882 16976

JSON: /api/v1/satellites/67523 · /tle

For live sub-satellite position, see the globe view (requires WebGL).

§ Visibility from observer

Set your observer location to see the next 7 days of passes ≥ 10°. The values pass through the URL so the page stays shareable.

No JS? Fill the form by hand. The geolocation button needs JavaScript.